Location: Naloco
(16.5478°S, 37.1017°E)
Time: 02:10:09
(UTC+00:00)

Hubble Space Telescope - Pass Details

Date: 13 August 2020
Orbit: 536 x 540 km, 28.5° (Epoch: 23 September)

Event Time Altitude Azimuth Distance (km) Brightness Sun altitude
Rises 15:41:35 0° 235° (SW) 2,687 5.0 -5.3°
Reaches altitude 10° 15:44:16 10° 219° (SW) 1,794 3.8 -5.9°
Maximum altitude 15:47:30 22° 167° (SSE) 1,220 2.4 -6.7°
Drops below altitude 10° 15:50:43 10° 116° (ESE) 1,789 2.8 -7.4°
Enters shadow 15:51:01 - 114° (ESE) 1,878 2.9 -7.5°
